CW2352 Weather Reports


Display with metric or nautical units.
time (UTC)temp
F
wind
direction
speed
MPH
gust
MPH
rain 1hr
in
rain 24hr
in
rain mn
in
humidity
%
barometer
mb
20190221213205 38 255 5.0 14.0 0.00 0.20 0.19 73 1019.7
20190221211705 38 267 7.0 12.0 0.00 0.20 0.19 72 1019.4
20190221211202 38 249 5.0 16.0 0.00 0.20 0.19 72 1019.4
20190221210703 38 279 7.0 12.0 0.00 0.20 0.19 72 1019.3
20190221210203 38 252 6.0 21.0 0.00 0.20 0.19 71 1019.3
20190221204706 38 230 9.0 20.0 0.00 0.20 0.19 71 1019.0
20190221204202 38 261 5.0 15.0 0.00 0.20 0.19 70 1019.0
20190221203702 39 262 9.0 22.0 0.00 0.20 0.19 70 1019.1
20190221203205 39 238 5.0 21.0 0.00 0.20 0.19 69 1019.0
20190221201706 39 244 5.0 20.0 0.00 0.20 0.19 69 1018.8
20190221201202 39 253 6.0 18.0 0.00 0.20 0.19 68 1018.8
20190221200703 39 265 7.0 20.0 0.00 0.20 0.19 68 1018.6
20190221200205 39 253 7.0 25.0 0.00 0.20 0.19 67 1018.5
20190221194705 39 250 9.0 26.0 0.00 0.20 0.19 68 1018.3
20190221194202 39 247 7.0 18.0 0.00 0.20 0.19 68 1018.2
20190221193701 39 250 7.0 20.0 0.00 0.20 0.19 67 1018.2
20190221193205 39 254 6.0 20.0 0.00 0.20 0.19 68 1018.1
20190221191704 39 262 7.0 12.0 0.00 0.20 0.19 69 1018.0
20190221191203 39 220 8.0 20.0 0.00 0.20 0.19 70 1018.0
20190221190702 39 211 6.0 20.0 0.00 0.20 0.19 71 1017.8
20190221190206 39 258 7.0 14.0 0.00 0.20 0.19 72 1017.8
20190221184704 39 261 3.0 15.0 0.00 0.20 0.19 73 1017.7
20190221184202 39 273 7.0 14.0 0.00 0.20 0.19 72 1017.7
20190221183703 39 257 6.0 14.0 0.00 0.20 0.19 72 1017.7
20190221183204 39 234 5.0 14.0 0.00 0.20 0.19 72 1017.7
20190221181706 39 241 7.0 14.0 0.00 0.20 0.19 71 1017.7
20190221181203 39 229 6.0 17.0 0.00 0.20 0.19 71 1017.7
20190221180702 39 258 7.0 20.0 0.00 0.20 0.19 71 1017.8
20190221180204 40 259 7.0 26.0 0.00 0.20 0.19 70 1017.8
20190221174704 39 235 6.0 14.0 0.00 0.20 0.19 72 1017.6
20190221174202 39 217 5.0 15.0 0.00 0.20 0.19 73 1017.6
20190221173703 39 213 5.0 15.0 0.00 0.20 0.19 74 1017.7
20190221173211 39 264 4.0 16.0 0.00 0.20 0.19 74 1017.6
20190221171706 39 257 6.0 18.0 0.00 0.20 0.19 75 1017.7
20190221171202 39 275 6.0 17.0 0.00 0.20 0.19 76 1017.8
20190221170703 39 262 6.0 15.0 0.00 0.20 0.19 78 1017.7
20190221170205 39 247 5.0 15.0 0.00 0.20 0.19 80 1017.7
20190221164706 38 237 5.0 12.0 0.00 0.20 0.19 84 1017.7
20190221164201 38 261 5.0 9.0 0.00 0.20 0.19 83 1017.6
20190221163703 38 262 7.0 13.0 0.00 0.20 0.19 83 1017.6
20190221163205 38 243 6.0 17.0 0.00 0.20 0.19 83 1017.5
20190221161706 39 256 6.0 10.0 0.00 0.20 0.19 82 1017.4
20190221161203 39 283 9.0 16.0 0.00 0.20 0.19 80 1017.2
20190221160704 39 279 5.0 13.0 0.00 0.20 0.19 81 1017.1
20190221160204 39 258 5.0 16.0 0.00 0.20 0.19 81 1016.9
20190221154705 39 237 7.0 20.0 0.00 0.20 0.19 80 1016.8
20190221154202 39 256 5.0 18.0 0.00 0.20 0.19 80 1016.7
20190221153702 39 255 5.0 18.0 0.00 0.20 0.19 80 1016.7
20190221153205 39 254 6.0 20.0 0.00 0.20 0.19 80 1016.5
20190221151706 39 261 7.0 22.0 0.00 0.20 0.19 80 1016.5
20190221151202 39 264 6.0 15.0 0.00 0.20 0.19 80 1016.5
20190221150703 39 252 6.0 16.0 0.00 0.20 0.19 80 1016.4
20190221150203 39 249 6.0 16.0 0.00 0.20 0.19 80 1016.2
20190221144707 39 233 7.0 16.0 0.00 0.20 0.19 81 1016.2
20190221144203 39 224 3.0 17.0 0.00 0.20 0.19 81 1016.2
20190221143702 39 236 6.0 12.0 0.00 0.20 0.19 81 1016.3
20190221143204 39 238 6.0 17.0 0.00 0.20 0.19 81 1016.1
20190221141705 39 223 5.0 12.0 0.01 0.20 0.19 84 1016.1
20190221141203 39 255 5.0 12.0 0.01 0.20 0.19 84 1016.0
20190221140703 39 251 4.0 12.0 0.01 0.20 0.19 84 1015.9
20190221140205 39 266 6.0 15.0 0.01 0.20 0.19 84 1016.0
20190221134705 39 247 7.0 18.0 0.01 0.20 0.19 86 1015.9
20190221134204 39 232 6.0 14.0 0.01 0.20 0.19 87 1015.8
20190221133704 38 233 7.0 16.0 0.01 0.20 0.19 87 1015.9
20190221133205 38 236 4.0 16.0 0.01 0.20 0.19 87 1015.9
20190221131705 38 268 4.0 12.0 0.00 0.19 0.18 89 1016.0
20190221131204 38 220 6.0 15.0 0.00 0.19 0.18 90 1016.0
20190221130703 38 249 5.0 12.0 0.00 0.19 0.18 90 1015.9
20190221130205 38 234 5.0 13.0 0.00 0.19 0.18 90 1015.8
20190221124703 38 260 5.0 16.0 0.00 0.19 0.18 91 1015.7
20190221124204 39 228 6.0 15.0 0.00 0.19 0.18 92 1015.6
20190221123702 38 261 5.0 12.0 0.00 0.19 0.18 93 1015.4
20190221123206 38 248 6.0 22.0 0.00 0.19 0.18 93 1015.3
20190221121706 38 204 5.0 18.0 0.00 0.19 0.18 95 1015.0
20190221121203 37 225 6.0 15.0 0.00 0.19 0.18 95 1014.9
20190221120703 37 234 5.0 12.0 0.00 0.19 0.18 96 1014.7
20190221120205 36 226 5.0 14.0 0.00 0.19 0.18 95 1014.8
20190221114705 35 184 2.0 8.0 0.00 0.19 0.18 95 1014.6
20190221114203 36 176 2.0 6.0 0.00 0.19 0.18 95 1014.4
20190221113703 35 193 2.0 6.0 0.00 0.19 0.18 95 1014.3
20190221113205 36 216 2.0 6.0 0.00 0.19 0.18 96 1014.2
20190221111706 35 203 2.0 6.0 0.01 0.19 0.18 96 1014.2
20190221111202 35 169 1.0 6.0 0.01 0.19 0.18 96 1014.1
20190221110704 35 236 1.0 3.0 0.01 0.19 0.18 96 1014.1
20190221110205 35 188 3.0 8.0 0.01 0.19 0.18 96 1014.0
20190221104706 34 142 3.0 7.0 0.01 0.19 0.18 96 1013.9
20190221104203 34 144 2.0 6.0 0.01 0.19 0.18 96 1013.8
20190221103704 34 144 3.0 7.0 0.01 0.19 0.18 96 1013.6
20190221103205 33 134 2.0 3.0 0.01 0.19 0.18 96 1013.6
20190221101706 33 114 2.0 3.0 0.01 0.18 0.17 96 1013.9
20190221101202 33 140 1.0 2.0 0.01 0.18 0.17 96 1013.9
20190221100702 33 140 1.0 2.0 0.01 0.18 0.17 96 1013.8
20190221100205 33 140 1.0 3.0 0.01 0.18 0.17 96 1013.8
20190221094706 33 99 1.0 2.0 0.02 0.18 0.17 96 1013.8
20190221094203 33 99 1.0 2.0 0.02 0.18 0.17 96 1013.8
20190221093704 33 99 0.0 2.0 0.02 0.18 0.17 96 1013.8
20190221093206 32 99 1.0 2.0 0.02 0.18 0.17 95 1013.9
20190221091706 33 99 1.0 2.0 0.02 0.17 0.16 95 1013.9
20190221091204 33 99 1.0 1.0 0.03 0.17 0.16 95 1014.0
20190221090702 33 99 0.0 1.0 0.03 0.17 0.16 95 1014.0
20190221090206 32 99 1.0 2.0 0.03 0.17 0.16 95 1014.0
20190221084706 32 99 1.0 2.0 0.02 0.16 0.15 95 1014.0
20190221084203 33 102 1.0 2.0 0.02 0.16 0.15 95 1014.1
20190221083703 33 102 1.0 3.0 0.03 0.16 0.15 95 1014.1
20190221083206 33 101 2.0 3.0 0.03 0.16 0.15 95 1014.1
20190221081705 33 104 3.0 5.0 0.02 0.15 0.14 95 1014.2
20190221081203 32 85 1.0 3.0 0.02 0.14 0.13 95 1014.3
20190221080703 32 91 2.0 6.0 0.02 0.14 0.13 95 1014.3
20190221080205 32 96 3.0 8.0 0.02 0.14 0.13 95 1014.2
20190221074706 31 114 3.0 5.0 0.03 0.14 0.13 95 1014.3
20190221074203 30 94 3.0 8.0 0.04 0.14 0.13 95 1014.3
20190221073703 30 82 5.0 8.0 0.03 0.13 0.12 95 1014.3
20190221073206 30 98 3.0 9.0 0.03 0.13 0.12 95 1014.5
20190221071705 30 111 3.0 6.0 0.04 0.13 0.12 94 1015.0
20190221071203 30 111 2.0 5.0 0.04 0.12 0.10 94 1014.9
20190221070704 30 91 3.0 5.0 0.04 0.12 0.10 94 1014.9
20190221070206 30 98 3.0 5.0 0.04 0.12 0.10 94 1015.0
20190221064706 30 66 2.0 3.0 0.06 0.10 0.09 94 1015.4
20190221064202 30 69 2.0 5.0 0.06 0.09 0.08 94 1015.5
20190221063703 29 80 2.0 3.0 0.06 0.09 0.08 94 1015.6
20190221063207 29 84 2.0 3.0 0.06 0.09 0.08 94 1015.6
20190221061705 29 81 3.0 6.0 0.06 0.08 0.07 94 1015.7
20190221061204 29 71 2.0 5.0 0.05 0.07 0.06 94 1015.9
20190221060702 28 59 2.0 3.0 0.05 0.07 0.06 93 1016.1
20190221060206 28 73 5.0 8.0 0.05 0.07 0.06 93 1016.0
20190221054706 28 23 1.0 3.0 0.02 0.04 0.03 93 1016.2
20190221054203 28 32 1.0 2.0 0.01 0.03 0.02 93 1016.4
20190221053703 28 59 2.0 7.0 0.01 0.03 0.02 93 1016.1
20190221053207 28 104 3.0 9.0 0.01 0.03 0.02 93 1016.0
20190221051707 28 86 4.0 10.0 0.00 0.02 0.01 93 1016.0
20190221051203 28 85 5.0 12.0 0.01 0.02 0.01 92 1016.3
20190221050703 28 82 6.0 10.0 0.01 0.02 0.01 92 1016.2
20190221050206 28 81 3.0 9.0 0.01 0.02 0.01 92 1016.4
20190221044707 28 92 2.0 9.0 0.01 0.01 0.01 93 1017.0
20190221044203 28 104 5.0 10.0 0.01 0.01 0.01 93 1016.8
20190221043704 28 73 5.0 9.0 0.01 0.01 0.01 93 1016.9
20190221043206 28 86 7.0 14.0 0.01 0.01 0.01 93 1017.1
20190221041703 27 81 7.0 12.0 0.01 0.01 0.01 93 1017.7
20190221041204 27 94 4.0 10.0 0.00 0.00 0.00 93 1018.2
20190221040703 27 95 6.0 13.0 0.00 0.00 0.00 93 1018.1
20190221040206 27 85 7.0 13.0 0.00 0.00 0.00 93 1018.4
20190221034705 26 85 7.0 13.0 0.00 0.00 0.00 93 1019.5
20190221034203 26 89 5.0 14.0 0.00 0.00 0.00 92 1019.5
20190221033703 25 76 6.0 13.0 0.00 0.00 0.00 92 1019.8
20190221033206 25 70 7.0 17.0 0.00 0.00 0.00 92 1020.2
20190221031706 24 77 5.0 9.0 0.00 0.00 0.00 92 1020.5
20190221031203 24 76 8.0 12.0 0.00 0.00 0.00 92 1020.3
20190221030703 24 75 6.0 12.0 0.00 0.00 0.00 92 1021.3
20190221030206 24 70 5.0 16.0 0.00 0.00 0.00 92 1021.3
20190221024706 24 81 8.0 13.0 0.00 0.00 0.00 92 1021.3
20190221024203 24 92 6.0 12.0 0.00 0.00 0.00 92 1021.6
20190221023704 23 92 8.0 15.0 0.00 0.00 0.00 92 1021.9
20190221023206 23 75 7.0 14.0 0.00 0.00 0.00 92 1021.9
20190221021707 23 83 6.0 12.0 0.00 0.00 0.00 91 1022.6
20190221021204 23 93 5.0 14.0 0.00 0.00 0.00 91 1023.1
20190221020705 23 82 5.0 14.0 0.00 0.00 0.00 91 1023.3
20190221020207 23 73 7.0 14.0 0.00 0.00 0.00 91 1023.3
20190221014706 23 96 6.0 12.0 0.00 0.00 0.00 91 1023.8
20190221014204 23 95 5.0 10.0 0.00 0.00 0.00 91 1023.9
20190221013703 23 86 9.0 13.0 0.00 0.00 0.00 91 1024.0
20190221013206 23 71 7.0 14.0 0.00 0.00 0.00 91 1024.3
20190221011706 23 89 6.0 12.0 0.00 0.00 0.00 90 1024.4
20190221011203 23 107 7.0 16.0 0.00 0.00 0.00 90 1024.4
20190221010704 23 83 9.0 16.0 0.00 0.00 0.00 90 1024.5
20190221010206 23 73 7.0 16.0 0.00 0.00 0.00 90 1024.7
20190221004706 24 82 7.0 14.0 0.00 0.00 0.00 90 1024.7
20190221004204 24 77 9.0 15.0 0.00 0.00 0.00 90 1024.9
20190221003704 24 93 9.0 15.0 0.00 0.00 0.00 90 1025.3
20190221003207 24 65 9.0 15.0 0.00 0.00 0.00 90 1025.5
20190221001707 24 88 7.0 14.0 0.00 0.00 0.00 89 1026.5
20190221001204 24 83 6.0 13.0 0.00 0.00 0.00 88 1026.5
20190221000704 24 89 6.0 14.0 0.00 0.00 0.00 88 1026.5
20190221000207 24 76 7.0 15.0 0.00 0.00 0.00 87 1026.5
20190220234707 24 80 6.0 15.0 0.00 0.00 0.00 85 1026.9
20190220234205 24 83 7.0 14.0 0.00 0.00 0.00 85 1026.9
20190220233704 24 73 8.0 16.0 0.00 0.00 0.00 84 1026.6
20190220233206 24 91 9.0 18.0 0.00 0.00 0.00 84 1026.4
20190220231706 24 74 8.0 20.0 0.00 0.00 0.00 84 1026.8
20190220231204 24 91 5.0 17.0 0.00 0.00 0.00 84 1027.0
20190220230704 24 81 7.0 13.0 0.00 0.00 0.00 84 1027.2
20190220230206 24 56 4.0 16.0 0.00 0.00 0.00 83 1027.4
20190220224707 24 79 8.0 15.0 0.00 0.00 0.00 82 1027.4
20190220224204 25 85 7.0 12.0 0.00 0.00 0.00 81 1027.6
20190220223704 25 79 8.0 14.0 0.00 0.00 0.00 80 1027.8
20190220223207 25 75 7.0 16.0 0.00 0.00 0.00 79 1028.0
20190220221707 25 100 9.0 14.0 0.00 0.00 0.00 75 1028.5
20190220221203 26 80 9.0 20.0 0.00 0.00 0.00 74 1028.3
20190220220704 26 72 9.0 15.0 0.00 0.00 0.00 72 1028.2
20190220220206 26 84 7.0 14.0 0.00 0.00 0.00 71 1028.5
20190220214706 26 82 7.0 13.0 0.00 0.00 0.00 68 1028.9
20190220214204 26 88 7.0 13.0 0.00 0.00 0.00 68 1029.0
20190220213703 26 86 6.0 17.0 0.00 0.00 0.00 68 1028.9